Weather Roundup
Issued by NWS Springfield, MO

Home | Current Version | Previous Version | Text Only | Print | Product List | Glossary On
Versions: 1 2 3 4 5 6 7 8 9 10 11 12 13 14 15 16 17 18 19 20 21 22 23 24 25 26 27 28 29 30 31 32 33 34 35 36 37 38 39 40 41 42 43 44 45 46 47 48 49 50
000
NZUS99 KSGF 291607
HRRSGF

HOURLY WEATHER
NATIONAL WEATHER SERVICE SPRINGFIELD MO
1100 AM CDT SUN MAR 29 2015

......SGF CWA......

CITY           SKY/WX    TMP DP  RH WIND       PRES   REMARKS
SPRINGFIELD    PTSUNNY   49  32  52 S9        30.07R
JOPLIN         MOSUNNY   57  39  51 SW12G20   30.04F
WEST PLAINS    PTSUNNY   45  30  55 S15       30.14F
ROLLA          MOSUNNY   48  30  49 S26G36    30.02F
OSAGE BEACH    PTSUNNY   48  30  49 S10       30.08R
BRANSON        MOSUNNY   54  36  50 SE14G20   30.05S

......SURROUNDING SGF CWA......

CITY           SKY/WX    TMP DP  RH WIND       PRES   REMARKS
CHANUTE        CLOUDY    50  39  66 S9        30.03S
PARSONS        CLOUDY    51  40  65 SW6       30.06F
COFFEYVILLE    PTSUNNY   51  39  63 SW6       30.04R
EMPORIA        PTSUNNY   56  44  64 SW10      30.00R
GROVE OK       SUNNY     61  39  44 W5        30.06R
ROGERS AR      SUNNY     61  42  49 SW9G21    30.04R
SILOAM SPRINGS SUNNY     57  39  51 S22       30.00S
HARRISON AR    SUNNY     57  40  52 S20       30.04F
NEAR YELLVILLE SUNNY     54  36  50 SE10      30.07F

......KANSAS AND MISSOURI......

CITY           SKY/WX    TMP DP  RH WIND       PRES   REMARKS
KANSAS CTY INT PTSUNNY   51  40  65 SW14      29.99R
DOWNTOWN KC    MOSUNNY   52  38  58 SW8       30.00R
COLUMBIA       CLOUDY    46  30  53 S22G29    30.02F
SEDALIA        LGT RAIN  45  35  68 S15       30.01F
ST JOSEPH      PTSUNNY   50  40  68 SW8       29.98S
ST LOUIS       PTSUNNY   49  22  34 S12G28    30.09F
SPIRIT OF STL  PTSUNNY   50  23  34 VRB6G21   30.08F
KIRKSVILLE     PTSUNNY   44  35  70 SW21G28   29.97R
WICHITA        PTSUNNY   58  46  64 NW6       30.00R
TOPEKA         PTSUNNY   56  43  61 W8        30.00R
OLATHE         PTSUNNY   49  39  68 SW10G22   29.99R

......TENNESSEE......

CITY           SKY/WX    TMP DP  RH WIND       PRES   REMARKS
MEMPHIS        CLOUDY    50  29  44 SE10G22   30.24F
NASHVILLE      SUNNY     49  14  24 SE13G18   30.31F

......ARKANSAS.......

CITY           SKY/WX    TMP DP  RH WIND       PRES   REMARKS
FAYETTEVILLE   SUNNY     57  42  57 S20G26    30.00F
FT SMITH       SUNNY     53  38  56 E13       30.07F
LITTLE ROCK    CLOUDY    51  40  65 S9        30.17F

......OKLAHOMA.......

CITY           SKY/WX    TMP DP  RH WIND       PRES   REMARKS
TULSA          PTSUNNY   55  41  59 VRB6      30.03R
PONCA CITY     MOSUNNY   61  45  55 VRB7      29.99F
MCALESTER      MOSUNNY   61  43  51 S14G26    30.02S
OKLAHOMA CITY  MOSUNNY   64  47  53 S13       29.95R

......IOWA............

CITY           SKY/WX    TMP DP  RH WIND       PRES   REMARKS
DES MOINES     CLOUDY    50  40  68 SW20      29.87S
QUAD CITIES    CLOUDY    35  28  75 S21G30    29.91R WCI  24

......ILLINOIS........

CITY           SKY/WX    TMP DP  RH WIND       PRES   REMARKS
QUINCY         CLOUDY    43  29  57 S22G31    29.96F
CHICAGO        LGT RAIN  37  18  46 S20G35    29.97F WCI  27



USA.gov is the U.S. government's official web portal to all federal, state and local government web resources and services.